User: anonymous   Login
Location: Fort Wayne
(41.1310°N, 85.1290°W)
Time: 13:38:31
(UTC-04:00)
Language:

Cosmos 2082 - Orbit

View from above orbital plane
View from above orbital plane
View from above satellite
View from above satellite

Ground track
Ground track

The orbit data is extracted from the following two-line orbital elements,

1 20624U 90046A   18112.92665134 -.00000031  00000-0  87454-5 0  9990
2 20624  71.0405 286.2624 0017240 274.7335  85.1818 14.14250722440982
Epoch (UTC): 22 April 2018 22:14:22
Eccentricity: 0.0017240
inclination: 71.0405°
perigee height: 832 km
apogee height: 857 km
right ascension of ascending node: 286.2624°
argument of perigee: 274.7335°
revolutions per day: 14.14250722
mean anomaly at epoch: 85.1818°
orbit number at epoch: 44098

The dashed part of the orbit path shows where the satellite is in the earth's shadow,  

DLR